Location: Thompson
(55.7500°N, 97.8670°W)
Time: 00:54:14
(UTC-05:00)

Daily predictions for brighter satellites

Satellite Brightness Start Highest point End
(mag) Time Altitude Azimuth Time Altitude Azimuth Time Altitude Azimuth
Cosmos 468 Rocket 4.3 00:03:15 10° NNW 00:08:33 63° ENE 00:13:20 12° SE
Cosmos 676 Rocket 4.1 00:03:44 10° SSW 00:09:05 90° E 00:14:28 10° NNE
Meteor 2-5 Rocket 4.3 00:05:33 14° SSE 00:10:19 46° E 00:15:47 10° NNE
Cosmos 1140 Rocket 3.7 00:08:53 11° S 00:13:49 58° ESE 00:18:59 10° NNE
Cosmos 1814 Rocket 4.3 00:09:40 10° NNW 00:14:54 63° ENE 00:19:44 12° SE
Cosmos 2369 Rocket 4.4 00:16:40 10° WNW 00:19:35 14° W 00:22:28 10° SW
COSMOS 2487 3.5 00:21:24 18° SSE 00:23:25 31° ESE 00:26:40 10° NE
Cosmos 1470 3.0 00:22:28 10° NNW 00:26:21 62° W 00:29:15 17° S
ALOS 2 2.8 00:23:39 16° SSE 00:27:07 66° ENE 00:31:31 10° N
ISS -2.6 00:24:33 10° SW 00:27:31 32° SSE 00:30:29 10° E
Cosmos 2369 3.9 00:21:58 10° NNW 00:27:39 71° NE 00:33:02 11° SE
Cosmos 1553 Rocket 4.3 00:25:13 10° N 00:31:30 63° ENE 00:36:55 15° SSE
SL-27 R/B 2.4 00:28:34 11° SSW 00:31:47 77° WNW 00:35:10 10° NNE
ATLAS 3B R/B 2.9 00:25:00 10° SW 00:32:41 87° SE 00:40:05 10° NE
ATLAS CENTAUR R/B 4.0 00:29:51 10° WNW 00:34:18 30° N 00:38:36 10° NE
Genesis I 3.6 00:30:28 10° NW 00:34:29 65° NE 00:38:26 10° ESE
Cosmos 1818 3.6 00:29:35 10° NW 00:35:05 77° SW 00:39:56 13° SE
Cosmos 1953 4.3 00:35:41 10° NW 00:38:42 21° W 00:41:42 10° SW
Meteor 1-16 Rocket 4.3 00:34:05 10° NNW 00:39:39 82° WSW 00:44:13 17° S
Cosmos 407 Rocket 4.4 00:35:20 10° SW 00:40:25 48° NW 00:45:29 10° NNE
Cosmos 614 Rocket 4.1 00:38:27 14° S 00:42:50 64° ESE 00:48:02 10° NNE
Cosmos 1340 2.6 00:43:01 18° S 00:45:47 82° ESE 00:49:37 10° NNE
Helios 1A Rocket 4.1 00:43:16 10° NE 00:46:52 29° E 00:49:20 16° SSE
Lacrosse 5 rocket 1.6 00:43:38 10° W 00:47:47 76° N 00:52:09 10° E
Cosmos 1092 Rocket 4.2 00:42:22 12° SSW 00:48:21 77° WNW 00:54:40 10° N
Cosmos 1763 Rocket 3.8 00:44:31 10° NNW 00:49:52 68° ENE 00:54:40 13° SE
Cosmos 2278 3.7 00:44:48 10° NW 00:50:29 80° WSW 00:55:09 16° SSE
Cosmos 1980 Rocket 3.4 00:45:21 10° NNW 00:50:39 40° NE 00:55:56 10° ESE
Cosmos 405 Rocket 3.9 00:48:48 17° SE 00:51:03 30° E 00:54:23 10° NNE
CZ-4B R/B 1.6 00:51:14 20° S 00:53:40 78° WSW 00:57:24 10° NNW
COSMOS 2406 3.2 00:51:46 10° SSW 00:57:30 87° ESE 01:03:19 10° NE
S3M 4.0 00:52:03 10° NNW 00:58:23 90° ENE 01:03:20 17° S
CZ-4C R/B 3.5 00:57:53 20° SSW 00:59:46 42° W 01:02:53 10° NNW
COSMOS 2455 4.2 00:59:22 10° W 01:05:05 42° NNW 01:10:49 10° NE
Cosmos 1437 Rocket 4.3 01:01:51 10° N 01:05:22 29° ENE 01:08:49 10° SE
Terra 4.2 01:04:18 10° WSW 01:06:28 13° W 01:08:38 10° NW
Lacrosse 5 1.8 01:01:59 10° WNW 01:07:03 74° SSW 01:12:06 10° ESE
USA 238 DEB 3.7 01:03:00 10° SW 01:10:04 74° SE 01:17:07 10° NE
USA 238 3.7 01:03:06 10° SW 01:10:10 74° SE 01:17:13 10° NE
Cosmos 1697 Rocket 3.0 01:05:49 10° NNW 01:11:31 67° NE 01:17:09 10° SE
Cosmos 1655 Rocket 4.0 01:07:26 16° S 01:12:42 88° W 01:19:00 10° NNE
H-2A R/B 2.2 01:09:32 10° NNE 01:13:25 82° ESE 01:16:03 20° SSW
Cosmos 1707 3.1 01:10:40 16° SSW 01:13:40 61° WNW 01:17:35 10° N
Cosmos 1766 Rocket 3.7 01:11:34 19° S 01:14:43 73° E 01:19:13 10° NNE
CZ-4C R/B 3.0 01:12:00 18° S 01:15:38 37° ESE 01:21:18 10° ENE
Cosmos 1328 Rocket 3.5 01:12:58 10° NNW 01:17:22 86° ENE 01:20:30 19° SSE
Cosmos 2082 Rocket 3.6 01:14:28 14° SSE 01:17:59 24° ESE 01:22:25 10° NE
Cosmos 1741 Rocket 4.3 01:13:07 10° SW 01:18:24 68° WNW 01:23:45 10° NNE
Cosmos 2221 3.5 01:14:44 10° NNW 01:18:43 36° W 01:21:43 16° SSW
Landsat 5 3.8 01:17:29 20° S 01:20:01 50° W 01:24:02 10° NNW
Cosmos 1943 Rocket 4.4 01:22:32 10° W 01:23:43 11° W 01:24:55 10° WSW
Lacrosse 4 Rocket 3.1 01:20:15 10° W 01:24:01 34° NW 01:27:51 10° NNE
Cosmos 1076 Rocket 3.5 01:22:58 19° SSW 01:26:00 84° W 01:30:17 10° N
MOS 1-B Rocket 4.4 01:20:11 13° SSE 01:27:01 81° ENE 01:33:25 10° NNW
Cosmos 1833 Rocket 4.2 01:23:37 12° SSE 01:27:14 22° ESE 01:31:28 10° NE
Cosmos 841 Rocket 3.5 01:24:05 10° NNW 01:29:21 75° WSW 01:33:31 17° SSE
Cosmos 1515 Rocket 3.6 01:25:13 10° NNW 01:29:42 89° E 01:32:54 19° S
BREEZE-M DEB (TANK) 3.9 01:16:50 10° WSW 01:29:49 45° S 01:33:41 10° ESE
Cosmos 1689 Rocket 3.6 01:30:06 18° SW 01:31:48 29° W 01:34:42 10° NNW
SS 1 4.4 01:29:02 10° NW 01:31:51 73° SW 01:34:07 16° SE
Cosmos 2228 Rocket 3.4 01:28:26 10° NNW 01:32:47 56° W 01:35:46 19° SSW
CZ-2C R/B 3.5 01:30:16 13° SSE 01:35:18 68° ENE 01:41:04 10° NNW
Cosmos 1726 4.4 01:32:40 10° NNE 01:35:28 20° ENE 01:38:14 10° ESE
Meteor 1-24 Rocket 3.9 01:31:06 16° SSW 01:36:05 79° WNW 01:41:59 10° NNE
Cosmos 2026 Rocket 4.3 01:34:20 13° SSW 01:39:41 60° WNW 01:45:42 10° N
CENTAUR R/B 4.3 01:37:39 10° SSE 01:41:38 18° ESE 01:46:02 10° ENE
Cosmos 1656 3.7 01:37:42 10° NW 01:43:24 71° WSW 01:48:15 14° SSE
Cosmos 1674 4.0 01:41:22 15° SE 01:43:51 30° E 01:47:11 10° NNE
NOSS 3-2 (C) 3.9 01:39:23 16° SSW 01:44:18 52° SE 01:50:58 10° NE
Aureole 1 Rocket 3.3 01:40:33 10° NNW 01:44:37 77° ENE 01:49:58 10° SSE
SL-23 DEB 3.9 01:41:47 10° WSW 01:45:10 35° S 01:48:04 10° ESE
Cosmos 1378 3.3 01:45:04 19° SSW 01:47:39 68° WNW 01:51:28 10° N
Cosmos 1607 4.0 01:41:59 10° SW 01:48:16 87° NW 01:54:31 10° NE
SL-16 R/B 3.4 01:46:56 10° NNW 01:52:24 44° NE 01:57:49 10° ESE
CZ-2C R/B 2.9 01:47:49 10° NNE 01:53:24 64° ESE 01:57:38 17° S
PSLV R/B 3.9 01:52:42 18° SSE 01:55:51 86° WSW 02:00:03 10° NNW
COSMOS 2487 4.0 01:55:46 10° WSW 01:59:04 32° NW 02:02:23 10° NNE
ASTEX 1 4.2 01:54:48 10° NNE 01:59:35 44° E 02:03:43 13° SSE
ISS -2.9 02:00:30 10° WSW 02:03:35 39° S 02:06:40 10° ESE
ALOS 2 4.4 02:01:02 12° SW 02:03:54 20° W 02:07:13 10° NW
Cosmos 2322 Rocket 3.0 01:59:22 10° NNW 02:04:55 52° NE 02:10:24 10° ESE
Cosmos 405 3.1 02:04:06 10° NNW 02:07:43 75° ENE 02:10:29 16° SSE
Meteor 1-21 Rocket 4.3 02:06:48 17° S 02:11:23 87° E 02:17:03 10° NNE
Genesis I 4.4 02:08:34 10° WNW 02:11:57 26° WSW 02:13:43 19° SSW
In-Cosmos 22 4.3 02:08:16 17° SSW 02:12:43 85° WNW 02:18:28 10° NNE
ATLAS CENTAUR R/B 3.6 02:10:00 10° NW 02:14:35 35° NNE 02:18:56 10° E
Cosmos 1707 Rocket 3.8 02:10:54 10° N 02:15:17 67° ENE 02:19:12 13° SSE
Cosmos 332 Rocket 3.8 02:10:39 10° NNW 02:15:30 84° ENE 02:20:19 10° SSE
Cosmos 1486 Rocket 4.1 02:14:20 15° SSW 02:18:44 78° WNW 02:24:00 10° NNE
Helios 1A Rocket 3.9 02:18:26 10° N 02:22:16 40° WNW 02:25:40 13° SW
ATLAS 3B R/B 3.8 02:16:43 10° W 02:24:06 51° NNW 02:31:08 10° ENE
Fregat R/B Cluster 11 4.5 02:18:29 10° SW 02:25:02 90° W 02:28:46 10° NE
Cosmos 1908 3.9 02:23:08 10° NNW 02:26:47 41° W 02:29:16 18° SSW
Lacrosse 5 rocket 1.5 02:22:54 10° WNW 02:27:05 59° SSW 02:31:28 10° SE
Cosmos 405 Rocket 4.0 02:24:02 12° SW 02:27:07 33° WNW 02:30:34 10° N
Cosmos 1151 Rocket 3.5 02:23:05 10° NNW 02:27:11 45° W 02:30:09 17° SSW
CZ-4B R/B 4.2 02:26:33 10° W 02:27:12 10° W 02:27:51 10° WNW
NOSS 3-2 (A) 3.6 02:22:18 10° SW 02:28:40 87° SE 02:35:44 10° NE
Cosmos 2058 3.6 02:27:08 14° SSE 02:30:31 47° E 02:34:32 10° NNE
SL-08 R/B 4.2 02:29:11 10° SE 02:33:54 52° ENE 02:38:42 10° N
Cosmos 2344 4.0 02:27:26 14° SSW 02:34:19 63° SE 02:43:41 10° NE
Cosmos 1980 Rocket 2.3 02:29:24 10° NW 02:34:57 60° WSW 02:40:30 10° SSE
Cosmos 2360 Rocket 3.6 02:30:07 10° NNW 02:35:27 40° NE 02:40:45 10° ESE
Cosmos 540 Rocket 3.7 02:30:32 10° NNW 02:35:37 57° WSW 02:40:09 13° S
Cosmos 2315 Rocket 4.4 02:29:38 10° NNW 02:35:48 53° W 02:40:59 14° SSW
Cosmos 2151 3.0 02:34:33 17° S 02:37:51 85° E 02:42:08 10° NNE
ERS-2 4.0 02:36:27 10° NE 02:39:33 24° E 02:42:37 10° SSE
Cosmos 1300 2.7 02:37:45 10° NNW 02:41:37 80° WSW 02:44:50 14° S
Cosmos 1437 Rocket 3.6 02:38:08 10° NNW 02:41:48 36° W 02:44:24 16° SSW
Lacrosse 5 2.8 02:45:14 10° WNW 02:49:30 28° SW 02:53:44 10° SSE
Cosmos 1441 Rocket 3.5 02:48:17 16° SSW 02:51:23 62° WNW 02:55:19 10° N
SL-16 R/B 4.0 02:45:52 10° ESE 02:51:35 39° ENE 02:57:19 10° N
Nadezhda 1 Rocket 4.0 02:47:22 10° NNW 02:53:38 89° E 02:59:45 10° S
Meteor 1-4 Rocket 3.4 02:50:07 10° N 02:53:48 50° ENE 02:57:30 10° SSE
Cosmos 1745 Rocket 4.3 02:48:46 11° S 02:54:54 66° E 03:01:11 10° NNE
Cosmos 1697 Rocket 3.6 02:50:13 10° NW 02:55:09 31° WSW 02:59:19 13° SSW
COS B Rocket 2.3 02:53:34 10° N 02:55:53 49° W 02:57:11 21° SSW
Sich 1 3.5 02:53:31 12° S 02:57:31 59° E 03:01:55 10° NNE
Meteor 2-10 4.3 02:52:31 10° NNW 02:57:42 72° ENE 03:03:01 10° SSE
USA 161 3.6 02:56:27 10° ESE 02:58:19 20° ENE 03:00:13 10° NNE
Cosmos 1867 3.6 02:54:31 11° SW 02:59:48 89° SE 03:05:21 10° NE
Cosmos 2082 Rocket 2.3 02:56:17 13° SW 03:01:29 83° NW 03:07:14 10° NE
USA 238 4.5 02:54:35 10° W 03:01:32 55° NNW 03:08:28 10° ENE
Timation 2 Rocket 4.5 02:55:27 10° SW 03:02:18 67° NW 03:09:01 10° NE
CZ-4C R/B 2.6 02:58:05 10° WSW 03:03:48 73° NNW 03:10:23 10° NE
Lacrosse 4 Rocket 4.2 03:01:10 10° NW 03:03:54 17° N 03:06:42 10° NNE
Cosmos 1437 3.0 03:02:21 14° S 03:05:06 67° ESE 03:08:27 10° NNE
Cosmos 1354 Rocket 4.3 03:00:31 12° SW 03:05:29 64° WNW 03:10:47 10° NNE
Cosmos 371 Rocket 3.4 03:02:12 10° NNW 03:07:00 58° WSW 03:11:44 10° S
Cosmos 1862 Rocket 4.0 03:03:55 10° N 03:08:25 66° ENE 03:12:52 10° SSE
Cosmos 1455 2.8 03:05:08 10° N 03:08:54 56° ENE 03:12:38 10° SSE
PSLV R/B 3.8 03:05:01 10° NNE 03:09:42 80° ESE 03:13:54 12° SSW
Abrixas 4.3 03:08:48 15° S 03:09:49 17° SSE 03:11:56 10° ESE
Cosmos 1833 Rocket 2.7 03:05:18 12° SSW 03:10:30 88° NW 03:16:12 10° NE
Cosmos 1726 2.4 03:07:33 10° NNW 03:11:09 51° W 03:14:21 13° S
Cosmos 1503 Rocket 4.4 03:06:53 11° SW 03:11:59 60° WNW 03:17:15 10° NNE
CZ-2C R/B 4.4 03:11:20 12° SW 03:15:39 28° W 03:20:35 10° NNW
ATLAS 5 CENTAUR R/B 4.2 03:17:12 10° SE 03:19:09 12° ESE 03:21:09 10° E
Cosmos 1674 3.9 03:16:20 11° SW 03:19:31 31° WNW 03:22:56 10° N
JB-3 4.4 03:16:49 10° NNE 03:20:54 82° ESE 03:24:41 11° SSW
COSMOS 2428 4.1 03:15:35 10° NNW 03:21:03 44° NE 03:26:28 10° ESE
Cosmos 304 Rocket 4.1 03:16:16 10° NNW 03:21:08 71° ENE 03:25:57 10° SE
Cosmos 968 Rocket 4.0 03:19:24 10° S 03:24:21 51° ESE 03:29:22 10° NE
GENESIS II 4.3 03:26:23 10° NW 03:30:33 81° SW 03:34:40 10° SE
IRS-P3 4.3 03:25:15 10° NNE 03:30:38 78° ESE 03:35:59 10° SSW
Resurs 1-4 Rocket 4.1 03:26:22 10° NE 03:30:40 24° E 03:34:56 10° SE
CENTAUR R/B 2.9 03:24:49 11° SSW 03:30:56 64° SE 03:38:03 10° NE
AQUA 4.3 03:26:52 10° NNE 03:31:37 60° ESE 03:36:19 10° S
CZ-2C R/B 4.0 03:28:30 10° N 03:33:23 32° WNW 03:38:10 10° WSW
Cosmos 1869 3.3 03:30:27 10° NNW 03:34:27 86° E 03:38:26 10° SSE
NOSS 3-2 (C) 4.1 03:28:46 10° WSW 03:35:12 65° NNW 03:42:21 10° NE
SL-16 R/B 2.4 03:31:10 10° NW 03:36:41 53° WSW 03:42:10 10° S
SL-14 R/B 3.4 03:34:37 11° SSW 03:38:17 62° WNW 03:42:08 10° N
ASTEX 1 4.4 03:34:02 10° N 03:38:32 35° WNW 03:42:59 10° SW
Cosmos 1626 3.0 03:35:34 10° SSE 03:39:10 46° E 03:42:47 10° NNE
Cosmos 2242 Rocket 4.4 03:35:19 10° NNW 03:39:23 36° W 03:43:24 10° SSW
ISS -2.0 03:36:59 10° WSW 03:39:32 21° SSW 03:42:04 10° SSE
Cosmos 2237 Rocket 4.4 03:35:41 10° NNW 03:40:42 31° NNE 03:45:43 10° E
Cosmos 923 Rocket 4.1 03:36:30 10° NNW 03:41:44 63° WSW 03:46:55 10° SSE
USA 129 4.0 03:43:04 10° ESE 03:44:02 15° ENE 03:45:04 10° NNE
Cosmos 1805 Rocket 4.5 03:42:36 10° SW 03:46:45 39° WNW 03:50:58 10° N
Cosmos 2322 Rocket 2.7 03:43:39 10° NW 03:48:55 41° WSW 03:54:09 10° S
Cosmos 1703 3.3 03:46:43 10° SSW 03:50:41 74° WNW 03:54:40 10° N
Cosmos 1680 Rocket 3.5 03:45:53 10° NNW 03:51:05 66° WSW 03:56:15 10° SSE
Cosmos 2181 Rocket 4.0 03:46:42 10° NNW 03:52:51 76° W 03:59:02 10° S
Cosmos 1271 Rocket 3.2 03:49:32 10° NNW 03:53:10 41° W 03:56:44 10° SSW
ATLAS CENTAUR R/B 1.8 03:49:23 10° NW 03:54:19 83° NE 03:58:54 10° SE
Cosmos 1633 Rocket 3.6 03:50:39 10° SSW 03:54:56 48° WNW 03:59:16 10° N
SME Rocket 4.3 03:50:06 10° SE 03:55:23 51° ENE 03:59:21 10° N
UNK 4.1 03:51:46 10° SSE 03:56:19 71° ENE 04:00:55 10° NNW
SL-23 DEB 4.1 03:54:26 10° W 03:57:18 32° SSW 04:00:29 10° SE
Cosmos 2219 Rocket 3.7 03:52:44 10° NNW 03:58:06 43° NE 04:03:26 10° ESE
Cosmos 773 Rocket 4.5 03:53:52 10° NW 03:58:40 40° WSW 04:03:26 10° S
CBERS-1 4.1 03:55:03 10° NNE 04:00:12 86° WNW 04:05:20 10° SSW
Cosmos 1777 Rocket 4.4 03:55:36 10° SSW 04:00:50 64° ESE 04:06:05 10° NNE
Cosmos 1933 3.4 03:59:23 10° NNW 04:03:27 88° W 04:07:29 10° S
Cosmos 1703 Rocket 3.6 03:59:05 10° NNW 04:03:31 89° WSW 04:07:51 10° S
EO 1 Del DPAF 3.3 04:01:51 10° S 04:05:46 75° WSW 04:09:43 10° NNW
